GW0571 Weather Reports


Display with metric or nautical units.
time (UTC)temp
F
wind
direction
speed
MPH
gust
MPH
rain 1hr
in
rain 24hr
in
rain mn
in
humidity
%
barometer
mb
20260502184438 45 239 3.0 9.0 0.00 0.00 0.00 45 1013.3
20260502183935 46 328 2.0 10.0 0.00 0.00 0.00 47 1013.1
20260502183431 46 196 2.0 5.0 0.00 0.00 0.00 45 1013.3
20260502182926 46 141 4.0 8.0 0.00 0.00 0.00 46 1013.3
20260502182422 46 334 2.0 8.0 0.00 0.00 0.00 46 1013.1
20260502181918 45 223 5.0 12.0 0.00 0.00 0.00 45 1013.3
20260502181417 46 234 7.0 14.0 0.00 0.00 0.00 45 1013.2
20260502180915 46 266 2.0 6.0 0.00 0.00 0.00 45 1013.3
20260502180412 46 249 9.0 11.0 0.00 0.00 0.00 46 1013.3
20260502170331 45 327 3.0 8.0 0.00 0.00 0.00 47 1013.1
20260502164318 46 47 4.0 6.0 0.00 0.00 0.00 44 1013.1
20260502163814 46 152 2.0 15.0 0.00 0.00 0.00 45 1013.4
20260502163310 46 325 3.0 9.0 0.00 0.00 0.00 45 1013.2
20260502162808 46 359 3.0 6.0 0.00 0.00 0.00 44 1013.2
20260502162305 46 48 2.0 9.0 0.00 0.00 0.00 40 1013.3
20260502161801 46 295 5.0 9.0 0.00 0.00 0.00 44 1013.5
20260502161257 46 9 3.0 7.0 0.00 0.00 0.00 40 1013.4
20260502160756 45 0 6.0 13.0 0.00 0.00 0.00 41 1013.2
20260502160254 47 355 5.0 5.0 0.00 0.00 0.00 46 1013.2
20260502152224 45 260 4.0 11.0 0.00 0.00 0.00 42 1013.5
20260502151721 45 292 2.0 14.0 0.00 0.00 0.00 44 1013.4
20260502151218 45 343 5.0 17.0 0.00 0.00 0.00 44 1013.5
20260502150715 45 276 4.0 17.0 0.00 0.00 0.00 43 1013.5
20260502150212 44 10 4.0 9.0 0.00 0.00 0.00 43 1013.5
20260502130601 42 352 3.0 6.0 0.00 0.00 0.00 68 1013.7
20260502123543 40 1 3.0 6.0 0.00 0.00 0.00 78 1013.7
20260502123040 39 293 3.0 10.0 0.00 0.00 0.00 77 1013.7
20260502122537 39 328 3.0 8.0 0.00 0.00 0.00 78 1013.7
20260502122034 40 304 4.0 9.0 0.00 0.00 0.00 82 1013.8
20260502121532 40 337 1.0 5.0 0.00 0.00 0.00 83 1013.8
20260502121029 40 15 4.0 8.0 0.00 0.00 0.00 84 1013.6
20260502120525 39 324 3.0 5.0 0.00 0.00 0.00 83 1013.7
20260502115520 39 348 3.0 4.0 0.00 0.00 0.00 86 1013.6
20260502115015 40 14 2.0 5.0 0.00 0.00 0.00 87 1013.7
20260502114513 39 352 2.0 5.0 0.00 0.00 0.00 88 1013.7
20260502114009 39 333 2.0 5.0 0.00 0.00 0.00 89 1013.8
20260502113507 39 46 6.0 6.0 0.00 0.00 0.00 90 1013.9
20260502113005 38 318 0.0 4.0 0.00 0.00 0.00 92 1013.7
20260502112502 38 228 0.0 4.0 0.00 0.00 0.00 93 1013.6
20260502112000 38 94 0.0 4.0 0.00 0.00 0.00 94 1013.6
20260502111457 38 24 2.0 3.0 0.00 0.00 0.00 95 1013.7
20260502110954 38 231 0.0 3.0 0.00 0.00 0.00 95 1013.5
20260502110452 38 246 0.0 1.0 0.00 0.00 0.00 95 1013.6
20260502105949 38 52 1.0 2.0 0.00 0.00 0.00 95 1013.4
20260502105447 37 96 1.0 3.0 0.00 0.00 0.00 95 1013.4
20260502104944 37 107 3.0 3.0 0.00 0.00 0.00 95 1013.3
20260502104441 37 82 2.0 3.0 0.00 0.00 0.00 95 1013.2
20260502103938 37 105 1.0 3.0 0.00 0.00 0.00 94 1013.2
20260502103436 37 95 1.0 2.0 0.00 0.00 0.00 94 1013.2
20260502102933 38 114 2.0 3.0 0.00 0.00 0.00 94 1013.2
20260502102430 38 76 2.0 2.0 0.00 0.00 0.00 94 1013.2
20260502101927 38 19 0.0 2.0 0.00 0.00 0.00 94 1013.0
20260502101425 38 77 0.0 2.0 0.00 0.00 0.00 94 1013.3
20260502100923 38 19 2.0 3.0 0.00 0.00 0.00 94 1013.1
20260502100422 38 307 0.0 3.0 0.00 0.00 0.00 94 1013.1
20260502091356 37 151 0.0 2.0 0.00 0.00 0.00 95 1012.6
20260502090853 38 327 0.0 2.0 0.00 0.00 0.00 95 1012.7
20260502090350 38 206 2.0 2.0 0.00 0.00 0.00 95 1012.7
20260502071245 38 44 0.0 0.0 0.00 0.00 0.00 96 1012.1
20260502070743 38 44 0.0 1.0 0.00 0.00 0.00 96 1012.0
20260502070240 38 293 0.0 3.0 0.00 0.00 0.00 95 1012.2
20260502065739 38 349 1.0 2.0 0.00 0.00 0.00 95 1012.0
20260502065236 38 22 0.0 2.0 0.00 0.00 0.00 95 1012.2
20260502064735 38 309 1.0 3.0 0.00 0.00 0.00 95 1012.2
20260502064232 38 334 1.0 4.0 0.00 0.00 0.00 95 1011.8
20260502063729 38 269 0.0 2.0 0.00 0.00 0.00 95 1012.1
20260502063227 38 27 2.0 5.0 0.00 0.00 0.00 95 1011.7
20260502062724 38 341 0.0 5.0 0.00 0.00 0.00 95 1012.1
20260502062222 38 8 3.0 5.0 0.00 0.00 0.00 95 1012.3
20260502061720 38 37 1.0 3.0 0.00 0.00 0.00 96 1012.3
20260502061217 39 349 1.0 3.0 0.00 0.00 0.00 96 1012.4
20260502060712 39 34 0.0 3.0 0.00 0.00 0.00 96 1012.4
20260502060209 39 357 3.0 3.0 0.00 0.00 0.00 96 1012.1
20260502055707 39 327 2.0 5.0 0.00 0.00 0.00 96 1012.0
20260502055204 39 317 2.0 5.0 0.00 0.00 0.00 96 1012.1
20260502054704 39 325 0.0 3.0 0.00 0.00 0.00 96 1012.1
20260502054200 39 269 0.0 3.0 0.00 0.00 0.00 96 1012.0
20260502053658 39 300 1.0 5.0 0.00 0.00 0.00 96 1011.8
20260502053154 39 339 2.0 5.0 0.00 0.00 0.00 96 1012.1
20260502052653 39 310 2.0 4.0 0.00 0.00 0.00 96 1012.0
20260502052151 39 336 2.0 4.0 0.00 0.00 0.00 96 1012.0
20260502051648 39 277 4.0 7.0 0.00 0.00 0.00 96 1012.2
20260502051146 39 260 2.0 3.0 0.00 0.00 0.00 96 1012.0
20260502050642 39 345 2.0 4.0 0.00 0.00 0.00 95 1011.8
20260502050139 39 356 3.0 5.0 0.00 0.00 0.00 95 1012.2
20260502045636 39 291 3.0 5.0 0.00 0.00 0.00 96 1012.2
20260502045133 40 304 2.0 5.0 0.00 0.00 0.00 96 1012.2
20260502044629 40 345 5.0 7.0 0.00 0.00 0.00 96 1012.4
20260502044126 41 354 2.0 3.0 0.00 0.00 0.00 96 1012.5
20260502043624 41 250 4.0 6.0 0.00 0.00 0.00 96 1012.4
20260502043121 41 186 2.0 3.0 0.00 0.00 0.00 96 1012.2
20260502042615 41 201 2.0 5.0 0.00 0.00 0.00 96 1012.0
20260502042112 41 230 4.0 5.0 0.00 0.00 0.00 96 1012.2
20260502041610 41 241 0.0 2.0 0.00 0.00 0.00 96 1012.1
20260502041107 41 240 3.0 3.0 0.00 0.00 0.00 96 1011.8
20260502040603 41 146 1.0 5.0 0.00 0.00 0.00 96 1011.7
20260502040101 41 231 2.0 5.0 0.00 0.16 0.16 96 1012.0
20260502035556 41 208 2.0 4.0 0.00 0.16 0.16 96 1011.8
20260502035054 41 242 2.0 5.0 0.00 0.16 0.16 96 1011.8
20260502034552 41 200 2.0 6.0 0.00 0.16 0.16 96 1011.8
20260502034050 41 43 0.0 6.0 0.00 0.16 0.16 96 1011.7
20260502033548 41 209 3.0 7.0 0.02 0.16 0.16 96 1011.7
20260502033045 41 235 1.0 2.0 0.00 0.15 0.15 96 1011.7
20260502032541 41 217 6.0 8.0 0.02 0.15 0.15 96 1011.8
20260502032038 41 134 0.0 8.0 0.05 0.15 0.15 96 1011.8
20260502031536 41 327 2.0 12.0 0.07 0.15 0.15 96 1012.1
20260502031033 42 289 2.0 7.0 0.07 0.15 0.15 96 1012.0
20260502030532 42 234 3.0 6.0 0.05 0.14 0.14 96 1012.1
20260502030029 42 223 1.0 2.0 0.05 0.13 0.13 96 1012.0
20260502025526 42 98 0.0 2.0 0.02 0.13 0.13 96 1012.0
20260502025025 42 233 2.0 3.0 0.02 0.13 0.13 96 1011.7
20260502024521 42 224 0.0 2.0 0.02 0.13 0.13 96 1012.0
20260502024020 42 150 0.0 2.0 0.00 0.12 0.12 96 1011.6
20260502023517 42 98 0.0 3.0 0.00 0.12 0.12 96 1011.8
20260502023014 42 138 2.0 2.0 0.00 0.12 0.12 96 1012.0
20260502022511 42 121 1.0 2.0 0.02 0.12 0.12 96 1012.0
20260502022009 42 124 0.0 2.0 0.05 0.12 0.12 96 1012.0
20260502021506 42 118 1.0 2.0 0.02 0.12 0.12 96 1012.1
20260502021002 42 168 0.0 2.0 0.05 0.11 0.11 96 1012.1
20260502020500 42 116 1.0 4.0 0.05 0.11 0.11 96 1012.1
20260502015956 42 143 1.0 3.0 0.05 0.11 0.11 96 1012.0
20260502015455 42 118 1.0 2.0 0.02 0.10 0.10 96 1012.0
20260502014951 42 110 0.0 1.0 0.00 0.10 0.10 96 1011.8
20260502014448 42 127 0.0 2.0 0.02 0.10 0.10 96 1011.8
20260502013944 42 129 3.0 3.0 0.02 0.10 0.10 96 1011.5
20260502013440 42 106 1.0 2.0 0.02 0.09 0.09 96 1011.6
20260502012936 42 89 0.0 2.0 0.02 0.09 0.09 96 1011.7
20260502012434 42 157 0.0 1.0 0.00 0.09 0.09 96 1011.8
20260502011932 42 132 2.0 3.0 0.02 0.09 0.09 96 1012.0
20260502011428 42 110 3.0 3.0 0.02 0.09 0.09 96 1012.0
20260502010925 42 114 2.0 2.0 0.00 0.09 0.09 96 1012.0
20260502010421 42 106 2.0 3.0 0.02 0.09 0.09 96 1011.7
20260502005918 42 157 1.0 4.0 0.02 0.09 0.09 96 1011.7
20260502005416 42 108 2.0 3.0 0.05 0.08 0.08 96 1012.0
20260502004914 42 111 2.0 3.0 0.05 0.08 0.08 96 1011.8
20260502004409 42 129 2.0 3.0 0.05 0.08 0.08 96 1012.0
20260502003906 42 114 2.0 2.0 0.02 0.07 0.07 95 1011.7
20260502003404 42 123 2.0 3.0 0.02 0.07 0.07 95 1011.6
20260502002900 42 108 2.0 3.0 0.02 0.07 0.07 95 1011.6
20260502002358 42 150 1.0 3.0 0.02 0.07 0.07 95 1011.5
20260502001855 42 148 2.0 3.0 0.02 0.06 0.06 95 1011.4
20260502001352 42 180 1.0 3.0 0.02 0.06 0.06 95 1011.5
20260502000849 42 249 0.0 4.0 0.05 0.06 0.06 95 1011.5
20260502000348 42 139 3.0 5.0 0.02 0.06 0.06 95 1011.7
20260501235844 43 217 2.0 3.0 0.05 0.06 0.06 95 1011.5
20260501235339 43 123 2.0 4.0 0.02 0.05 0.05 94 1011.4
20260501234835 43 117 1.0 3.0 0.05 0.05 0.05 94 1011.3
20260501234332 43 119 2.0 3.0 0.05 0.04 0.04 94 1011.5
20260501233831 43 136 1.0 3.0 0.05 0.04 0.04 93 1011.4
20260501233328 43 233 0.0 3.0 0.05 0.04 0.04 93 1011.4
20260501232823 43 64 0.0 3.0 0.07 0.04 0.04 92 1011.4
20260501232321 43 197 2.0 3.0 0.07 0.03 0.03 92 1011.3
20260501231818 43 257 0.0 4.0 0.05 0.02 0.02 90 1011.5
20260501231316 44 242 4.0 7.0 0.05 0.02 0.02 89 1011.4
20260501230814 44 237 3.0 10.0 0.02 0.01 0.01 85 1011.3
20260501230313 45 263 1.0 5.0 0.00 0.00 0.00 82 1011.4
20260501225809 45 242 3.0 5.0 0.02 0.00 0.00 79 1011.2
20260501225307 46 233 4.0 5.0 0.02 0.00 0.00 77 1011.3
20260501224803 46 249 3.0 5.0 0.00 0.00 0.00 75 1011.1
20260501224301 47 223 2.0 5.0 0.00 0.00 0.00 73 1011.2
20260501223756 47 208 2.0 6.0 0.00 0.00 0.00 71 1011.2
20260501223253 47 226 3.0 5.0 0.00 0.00 0.00 69 1011.1
20260501222749 48 243 3.0 6.0 0.00 0.00 0.00 67 1011.0
20260501222246 48 180 0.0 5.0 0.00 0.00 0.00 67 1011.0
20260501221743 48 220 2.0 5.0 0.00 0.00 0.00 66 1011.0
20260501221241 48 235 2.0 5.0 0.00 0.00 0.00 64 1010.9
20260501220738 48 250 7.0 7.0 0.00 0.00 0.00 63 1011.0
20260501220235 48 253 6.0 9.0 0.00 0.00 0.00 63 1010.9
20260501215732 49 235 3.0 4.0 0.00 0.00 0.00 64 1011.1
20260501215227 49 199 4.0 12.0 0.00 0.00 0.00 62 1011.1
20260501214723 49 8 0.0 7.0 0.00 0.00 0.00 60 1010.9
20260501214219 49 246 4.0 6.0 0.00 0.00 0.00 60 1010.8
20260501213716 49 289 4.0 9.0 0.00 0.00 0.00 60 1011.0
20260501213211 50 242 7.0 7.0 0.00 0.00 0.00 61 1011.1
20260501212702 50 204 3.0 5.0 0.00 0.00 0.00 59 1011.0
20260501212159 50 202 1.0 7.0 0.00 0.00 0.00 61 1010.9
20260501211655 50 204 3.0 8.0 0.00 0.00 0.00 60 1010.8
20260501211153 50 233 4.0 6.0 0.00 0.00 0.00 59 1010.9
20260501210650 49 152 2.0 7.0 0.00 0.00 0.00 57 1011.0
20260501210146 50 200 3.0 6.0 0.00 0.00 0.00 57 1010.9
20260501205642 50 274 3.0 6.0 0.00 0.00 0.00 58 1011.0
20260501205140 50 216 6.0 11.0 0.00 0.00 0.00 57 1011.0
20260501204637 50 343 2.0 3.0 0.00 0.00 0.00 56 1011.0
20260501204132 50 162 2.0 7.0 0.00 0.00 0.00 55 1011.1
20260501203629 50 43 1.0 2.0 0.00 0.00 0.00 59 1010.9
20260501203127 50 0 2.0 4.0 0.00 0.00 0.00 56 1010.7
20260501202624 49 236 4.0 7.0 0.00 0.00 0.00 57 1010.9
20260501202120 50 175 2.0 4.0 0.00 0.00 0.00 57 1011.0
20260501201618 49 257 0.0 2.0 0.00 0.00 0.00 60 1011.1
20260501201114 49 165 1.0 2.0 0.00 0.00 0.00 60 1011.1
20260501200611 49 250 4.0 5.0 0.00 0.00 0.00 60 1011.2
20260501200109 49 206 0.0 2.0 0.00 0.00 0.00 60 1011.2
20260501195606 49 219 2.0 5.0 0.00 0.00 0.00 59 1011.1
20260501195102 49 230 1.0 2.0 0.00 0.00 0.00 59 1011.1
20260501194557 49 226 3.0 6.0 0.00 0.00 0.00 59 1011.3
20260501194053 50 228 3.0 8.0 0.00 0.00 0.00 61 1011.2
20260501193551 50 251 2.0 8.0 0.00 0.00 0.00 59 1011.2
20260501193049 49 130 2.0 3.0 0.00 0.00 0.00 57 1011.1
20260501192545 48 251 2.0 8.0 0.00 0.00 0.00 62 1011.4
20260501192043 49 242 5.0 6.0 0.00 0.00 0.00 59 1011.3
20260501191540 49 224 0.0 3.0 0.00 0.00 0.00 62 1011.3
20260501191038 47 218 2.0 5.0 0.00 0.00 0.00 67 1011.6
20260501190533 46 243 7.0 9.0 0.00 0.00 0.00 69 1011.6
20260501190029 46 261 4.0 13.0 0.00 0.00 0.00 68 1011.8
20260501185525 49 335 1.0 15.0 0.00 0.00 0.00 57 1011.4
20260501185021 50 220 3.0 10.0 0.00 0.00 0.00 52 1011.7